Location: Bay Harbour
(38.2612°N, 75.2555°W)
Time: 02:17:41
(UTC+00:00)

SMAP - Pass Details

Date: 29 October 2020
Orbit: 681 x 683 km, 98.1° (Epoch: 02 December)

Event Time Altitude Azimuth Distance (km) Brightness Sun altitude
Rises 22:53:41 0° 180° (S) 3,029 6.5 -10.3°
Reaches altitude 10° 22:55:59 10° 187° (S) 2,118 5.8 -10.7°
Maximum altitude 23:00:27 47° 261° (W) 908 4.3 -11.6°
Drops below altitude 10° 23:04:56 10° 335° (NNW) 2,133 5.8 -12.4°
Sets 23:07:16 0° 341° (NNW) 3,053 6.6 -12.9°
